NOAA 16 DEB, 41291

Orbit data source: Space-Track

NOAA 16 DEB, 41291 is space debris in SSO originally from a launch on Thu, 21 Sep 2000 UTC launched from the Air Force Western Test Range (AFWTR). Debris objects in space refer to the collection of defunct objects orbiting the Earth. Examples of debris include non-operational satellites, rocket bodies, and fragments generated from explosions, collisions, or faulty payload assembly.

Loading next visibility...
Identifier
41291, 2000-055GT
Orbit
SSO
Country
Flag of USUS
Related business
Manufacturer
Unknown
Mission
Spacecraft
Bus & Motor
Unknown
Mass
Unknown
Launch date (UTC)
2000-09-21 (25 years ago)
Launch vehicle
Unknown
Launch site
Air Force Western Test Range (AFWTR)
Object type
Payload
Rocket body
Debris
Shape & HBR
Unknown
Radar Cross Section
Small (<0.1 m²)

Expand to show TLE details & history
Last TLE update: 2 days ago

TLE from 2 days ago
0 NOAA 16 DEB
1 41291U 00055GT  25241.36801840  .00009253  00000-0  22831-2 0  9998
2 41291  99.0005 107.8599 0035362 208.2114 151.7165 14.51980049508266
Epoch: 2025-08-29T08:49Z
TLE epoch observation values (Epoch: 2025-08-29T08:49:56.789Z)
Latitude
0.00003°
Longitude
-2.4444°
Altitude
744.263 km
Speed
7.471 km/s
True Right ascension
07h 11m 26s
True Declination
0° 00' 00"
Sunlit
Object was in daylight at epoch
Visualization orbit readout
Latitude
Unknown
Longitude
Unknown
Altitude
Unknown
Speed
Unknown
Apparent Right ascension
Unknown
Apparent Declination
Unknown
Sunlit
N/A
Visualization observer readout
Local Sidereal Time
22:14:04
Azimuth
Unknown
Elevation
Unknown
Doppler factor
Unknown
Orbital elements
Apogee altitude
741.407 km
Perigee altitude
691.232 km
Semi-major axis
7,094.456 km
Eccentricity
0.00354
Inclination
99.0005°
RAAN
107.8599°
Arg. of periapsis
208.2114°
True anomaly
151.90776°
Mean anomaly
151.7165°
Eccentric anomaly
151.81221°
Mean motion
3.63216 °/min
Orbital period
99.11 mins
BSTAR
0.0022831
Loading maneuver chart data...
Computing Atmospheric mass density...
Loading historical data...
Loading historical data...
Loading historical data...
Loading historical data...
Loading historical data...
Loading historical data...
Loading historical data...

Documentation

Showing up to 5 results
|